(512921) = 2010 OZ98 = 2016 XJ10

Discovered at WISE on 2010-07-28 by WISE.

Orbit

Orbit type: Main Belt

Note: WebGL enabled browser required.

epoch2024-03-31.0
epoch JD2460400.5
perihelion date2021-09-07.96106
perihelion JD2459465.46106
argument of perihelion (°)113.67802
ascending node (°)254.66979
inclination (°)13.35894
eccentricity0.1406960
perihelion distance (AU)2.7091538
Tisserand w.r.t. Jupiter3.2
ΔV w.r.t. Earth (km/sec)11.1
semimajor axis (AU)3.1527304
mean anomaly (°)164.62784
mean daily motion (°/day)0.17606520
aphelion distance (AU)3.596
period (years)5.6
P-vector [x]0.96550630
P-vector [y]0.05504291
P-vector [z]0.25449531
Q-vector [x]-0.13470196
Q-vector [y]0.94203489
Q-vector [z]0.30728758
absolute magnitude16.09
phase slope0.15
uncertainty0
referenceMPEC 2024-F28
observations used194
oppositions11
arc length (days)7104
first opposition used2004
last opposition used2024
residual rms (arc-secs)0.62
perturbers coarse indicatorM-v
perturbers precise indicator003Ek
first observation date used2004-10-05.0
last observation date used2024-03-18.0
computer nameMPCLINUX
JD of orbit computation2458135.197675
perihelion JD uncertainty (days)1.2681E-04
argument of perihelion uncertainty (°)2.9545E-05
ascending node uncertainty (°)1.9295E-05
inclination uncertainty (°)6.8002E-06
eccentricity uncertainty 4.2988E-08
perihelion distance uncertainty (AU)1.3273E-07
Minimum Orbit Intersection Distances (in AU)
for orbit epoch: 2460400.5, reference: E2024-GF4
Mercury2.37413
Venus2.01704
Earth1.74397
Mars1.33221
Jupiter2.00297
Saturn5.90812
Uranus14.9983
Neptune26.9558

Observations

195 total observations over interval: 2004 10 05.19890 – 2024 03 18.425907
These data are available for download (format description).

Date (UT) J2000 RA J2000 Dec Magn Location Ref
2004 10 05.19890 22 23 29.24 +11 20 17.3 20.0   644 – Palomar Mountain/NEAT MPS 756004
2004 10 05.22097 22 23 28.78 +11 20 07.6 20.1   644 – Palomar Mountain/NEAT MPS 756004
2004 10 05.24803 22 23 28.21 +11 19 55.9 19.7   644 – Palomar Mountain/NEAT MPS 756004
2010 07 28.724499 01 59 15.31 +25 34 52.1   C51 – WISE MPS 342197
2010 07 28.72450 01 59 15.30 +25 34 52.6   C51 – WISE MPS 342197
2010 07 28.856803 01 59 22.74 +25 35 47.1   C51 – WISE MPS 342197
2010 07 28.989106 01 59 30.28 +25 36 40.5   C51 – WISE MPS 342197
2010 07 29.121411 01 59 37.55 +25 37 35.9   C51 – WISE MPS 342197
2010 07 29.187499 01 59 41.33 +25 38 03.1   C51 – WISE MPS 342197
2010 07 29.253714 01 59 45.03 +25 38 31.0   C51 – WISE MPS 342197
2010 07 29.319803 01 59 48.77 +25 38 58.3   C51 – WISE MPS 342197
2010 07 29.386019 01 59 52.30 +25 39 25.3   C51 – WISE MPS 342197
2010 07 29.518319 01 59 59.645 +25 40 21.40   C51 – WISE MPS 904599
2010 07 29.584407 02 00 03.384 +25 40 47.75   C51 – WISE MPS 904599
2010 07 29.716712 02 00 10.692 +25 41 41.60   C51 – WISE MPS 904599
2010 07 29.849015 02 00 17.935 +25 42 36.94   C51 – WISE MPS 904599
2010 07 29.981319 02 00 25.222 +25 43 31.37   C51 – WISE MPS 904599
2010 07 30.113623 02 00 32.522 +25 44 25.15   C51 – WISE MPS 904599
2010 10 31.29163 01 55 15.88 +25 50 54.7 19.5 V G96 – Mt. Lemmon Survey MPS 756004
2010 10 31.29848 01 55 15.56 +25 50 50.8 19.7 V G96 – Mt. Lemmon Survey MPS 756004
2010 10 31.30541 01 55 15.24 +25 50 47.3 19.6 V G96 – Mt. Lemmon Survey MPS 756004
2010 10 31.31232 01 55 14.88 +25 50 43.6 19.4 V G96 – Mt. Lemmon Survey MPS 756004
2010 12 03.12602 01 39 11.19 +20 57 22.3 20.5 V G96 – Mt. Lemmon Survey MPS 756004
2010 12 03.13354 01 39 11.12 +20 57 18.5 20.6 V G96 – Mt. Lemmon Survey MPS 756004
2010 12 03.14116 01 39 11.08 +20 57 14.9 20.5 V G96 – Mt. Lemmon Survey MPS 756004
2010 12 03.14868 01 39 10.98 +20 57 11.5 20.8 V G96 – Mt. Lemmon Survey MPS 756004
2011 01 26.10734 02 05 42.51 +17 42 38.1   691 – Steward Observatory, Kitt Peak-Spacewatch MPS 756004
2011 01 26.14755 02 05 44.81 +17 42 39.9   691 – Steward Observatory, Kitt Peak-Spacewatch MPS 756004
2011 01 26.17692 02 05 46.61 +17 42 39.4   691 – Steward Observatory, Kitt Peak-Spacewatch MPS 756004
2012 01 02.44870 08 27 59.32 +05 25 27.3 21.2 V G96 – Mt. Lemmon Survey MPS 756004
2012 01 02.45617 08 27 59.04 +05 25 26.1 21.2 V G96 – Mt. Lemmon Survey MPS 756004
2012 01 02.46367 08 27 58.68 +05 25 25.5 21.0 V G96 – Mt. Lemmon Survey MPS 756004
2012 01 02.47118 08 27 58.35 +05 25 24.6 21.0 V G96 – Mt. Lemmon Survey MPS 756004
2012 01 24.35192 08 10 24.273 +05 16 11.20 20.7 w F51 – Pan-STARRS 1, Haleakala MPS 756004
2012 01 24.36591 08 10 23.549 +05 16 11.88 20.8 w F51 – Pan-STARRS 1, Haleakala MPS 756004
2012 01 24.37989 08 10 22.825 +05 16 12.68 20.9 w F51 – Pan-STARRS 1, Haleakala MPS 756004
2012 01 24.39390 08 10 22.095 +05 16 13.33 20.7 w F51 – Pan-STARRS 1, Haleakala MPS 756004
2014 06 04.35526 16 01 31.910 -23 38 07.90 20.4 r F51 – Pan-STARRS 1, Haleakala MPS 756004
2014 06 04.37272 16 01 31.048 -23 38 02.49 20.4 r F51 – Pan-STARRS 1, Haleakala MPS 756004
2014 06 04.38136 16 01 30.626 -23 37 59.65 20.6 r F51 – Pan-STARRS 1, Haleakala MPS 756004
2014 06 24.26492 15 48 08.79 -21 52 17.5 21.2 V G96 – Mt. Lemmon Survey MPS 756004
2014 06 24.27149 15 48 08.54 -21 52 15.0 21.0 V G96 – Mt. Lemmon Survey MPS 756004
2014 06 24.27807 15 48 08.34 -21 52 13.5 20.5 V G96 – Mt. Lemmon Survey MPS 756004
2014 06 24.28464 15 48 08.10 -21 52 11.3 20.1 V G96 – Mt. Lemmon Survey MPS 756004
2014 07 01.32262 15 44 57.968 -21 18 42.44 21.3 w F51 – Pan-STARRS 1, Haleakala MPS 756004
2014 07 01.32460 15 44 57.913 -21 18 41.97 21.1 w F51 – Pan-STARRS 1, Haleakala MPS 756004
2014 07 01.33389 15 44 57.685 -21 18 39.45 21.3 w F51 – Pan-STARRS 1, Haleakala MPS 756004
2014 07 01.33587 15 44 57.651 -21 18 38.92 21.2 w F51 – Pan-STARRS 1, Haleakala MPS 756004
2014 07 01.34516 15 44 57.421 -21 18 36.50 21.2 w F51 – Pan-STARRS 1, Haleakala MPS 756004
2014 07 01.34714 15 44 57.370 -21 18 35.78 21.2 w F51 – Pan-STARRS 1, Haleakala MPS 756004
2014 07 01.35645 15 44 57.148 -21 18 33.37 21.3 w F51 – Pan-STARRS 1, Haleakala MPS 756004
2014 07 01.35842 15 44 57.086 -21 18 32.66 21.4 w F51 – Pan-STARRS 1, Haleakala MPS 756004
2015 07 12.45689 22 00 58.659 +05 58 55.27 20.6 w F51 – Pan-STARRS 1, Haleakala MPS 756004
2015 07 12.46968 22 00 58.406 +05 58 59.19 20.5 w F51 – Pan-STARRS 1, Haleakala MPS 756004
2015 07 12.48252 22 00 58.155 +05 59 03.29 20.6 w F51 – Pan-STARRS 1, Haleakala MPS 756004
2015 07 12.49538 22 00 57.905 +05 59 07.19 20.6 w F51 – Pan-STARRS 1, Haleakala MPS 756004
2016 11 03.62162 05 32 13.537 +24 47 03.36 20.6 w F51 – Pan-STARRS 1, Haleakala MPS 749734
2016 11 03.63460 05 32 13.203 +24 47 00.33 20.6 w F51 – Pan-STARRS 1, Haleakala MPS 749734
2016 11 03.64105 05 32 13.023 +24 46 58.70 20.7 w F51 – Pan-STARRS 1, Haleakala MPS 749734
2016 11 19.50858 05 22 52.73 +23 37 39.8 20.1 V G96 – Mt. Lemmon Survey MPS 749734
2016 11 19.51302 05 22 52.53 +23 37 37.9 20.1 V G96 – Mt. Lemmon Survey MPS 749734
2016 11 19.51890 05 22 52.24 +23 37 36.6 20.2 V G96 – Mt. Lemmon Survey MPS 749734
2016 11 19.52356 05 22 52.03 +23 37 34.9 20.1 V G96 – Mt. Lemmon Survey MPS 749734
2016 12 04.28948 05 10 17.74 +22 21 51.7 20.2 V G96 – Mt. Lemmon Survey MPS 749734
2016 12 04.29437 05 10 17.46 +22 21 49.8 20.1 V G96 – Mt. Lemmon Survey MPS 749734
2016 12 04.29932 05 10 17.18 +22 21 48.3 20.1 V G96 – Mt. Lemmon Survey MPS 749734
2016 12 04.30420 05 10 16.93 +22 21 46.4 20.2 V G96 – Mt. Lemmon Survey MPS 749734
2016 12 04.44404 05 10 09.01 +22 21 01.0   G96 – Mt. Lemmon Survey MPS 749734
2016 12 04.45022 05 10 08.68 +22 20 59.1 20.2 V G96 – Mt. Lemmon Survey MPS 749734
2016 12 04.45531 05 10 08.40 +22 20 57.2 20.0 V G96 – Mt. Lemmon Survey MPS 749734
2016 12 04.46094 05 10 08.08 +22 20 56.1 20.0 V G96 – Mt. Lemmon Survey MPS 749734
2016 12 05.21596 05 09 27.12 +22 16 52.4 20.1 V G96 – Mt. Lemmon Survey MPS 749734
2016 12 05.22143 05 09 26.81 +22 16 50.8 20.1 V G96 – Mt. Lemmon Survey MPS 749734
2016 12 05.22697 05 09 26.50 +22 16 49.0 20.0 V G96 – Mt. Lemmon Survey MPS 749734
2016 12 05.23252 05 09 26.19 +22 16 47.2 20.1 V G96 – Mt. Lemmon Survey MPS 749734
2016 12 05.27899 05 09 23.55 +22 16 31.2 19.8 V G96 – Mt. Lemmon Survey MPS 749734
2016 12 05.27945 05 09 23.52 +22 16 32.7 20.3 V G96 – Mt. Lemmon Survey MPS 749734
2016 12 05.28876 05 09 23.03 +22 16 29.5 19.9 V G96 – Mt. Lemmon Survey MPS 749734
2016 12 05.28922 05 09 23.01 +22 16 28.2 20.0 V G96 – Mt. Lemmon Survey MPS 749734
2016 12 05.29884 05 09 22.46 +22 16 25.8 19.7 V G96 – Mt. Lemmon Survey MPS 749734
2016 12 05.29930 05 09 22.37 +22 16 25.5 19.5 V G96 – Mt. Lemmon Survey MPS 749734
2016 12 18.36995 04 57 40.69 +21 05 59.2 20.0 V G96 – Mt. Lemmon Survey MPS 752880
2016 12 18.37423 04 57 40.42 +21 05 58.1 19.9 V G96 – Mt. Lemmon Survey MPS 752880
2016 12 18.37852 04 57 40.22 +21 05 56.9 19.9 V G96 – Mt. Lemmon Survey MPS 752880
2016 12 18.38279 04 57 40.00 +21 05 55.1 20.0 V G96 – Mt. Lemmon Survey MPS 752880
2018 01 16.51003 10 09 07.124 -06 15 09.92 21.4 w F51 – Pan-STARRS 1, Haleakala MPS 857863
2018 01 16.52271 10 09 06.732 -06 15 11.13 21.3 w F51 – Pan-STARRS 1, Haleakala MPS 857863
2018 01 16.53538 10 09 06.343 -06 15 12.52 21.4 w F51 – Pan-STARRS 1, Haleakala MPS 857863
2018 01 16.54803 10 09 05.945 -06 15 13.95 21.5 w F51 – Pan-STARRS 1, Haleakala MPS 857863
2018 03 10.29920 09 32 46.114 -04 19 08.93 21.6 w F51 – Pan-STARRS 1, Haleakala MPS 876064
2018 03 10.31114 09 32 45.655 -04 19 05.49 21.3 w F51 – Pan-STARRS 1, Haleakala MPS 876064
2018 03 10.32305 09 32 45.230 -04 19 02.03 21.2 w F51 – Pan-STARRS 1, Haleakala MPS 876064
2018 03 10.33493 09 32 44.806 -04 18 58.24 21.3 w F51 – Pan-STARRS 1, Haleakala MPS 876064
2018 03 20.20578 09 27 45.33 -03 29 00.8 21.4 G G96 – Mt. Lemmon Survey MPS 878893
2018 03 20.21098 09 27 45.18 -03 28 58.4 21.9 G G96 – Mt. Lemmon Survey MPS 878893
2018 03 20.21618 09 27 45.03 -03 28 57.0 21.1 G G96 – Mt. Lemmon Survey MPS 878893
2018 03 20.22140 09 27 44.94 -03 28 54.7 22.0 G G96 – Mt. Lemmon Survey MPS 878893
2019 05 29.31278 13 08 05.724 -19 22 20.48 21.8 w F51 – Pan-STARRS 1, Haleakala MPS 1012473
